Home > Weather > Płock > Past weeks

Flag for Poland Weather for the Past 2 Weeks in Płock, Poland

Now
41 °F

Quite cool.


Feels Like: 41 °F
Forecast: 48 / 69 °F
Wind: 2 mph from Northwest

Location: Plock

Current Time: May 5, 2016 at 5:54:27 AM

Latest Report: May 5, 2016 at 5:00 AM


Visibility: 9 mi

Pressure: 30.29 "Hg

Humidity: 88%

Dew Point: 38 °F

Location of PłockLocation

Historic Weather in Płock — Graph

°F

Płock Temperature Yesterday

Maximum temperature yesterday: 67 °F (at 3:00 PM)
Minimum temperature yesterday: 48 °F (at 2:00 AM)
Average temperature yesterday: 57 °F

High & Low Weather Summary for the Past Weeks

 TemperatureHumidityPressure
High67 °F (May 4, 3:00 PM)97% (May 1, 7:00 AM)30.28 "Hg (May 1, 7:00 AM)
Low29 °F (Apr 26, 5:00 AM)28% (Apr 26, 4:00 PM)29.57 "Hg (Apr 26, 6:00 PM)
Average49 °F63%29.99 "Hg
* Reported Apr 20 4:00 AM — May 5 4:00 AM, Płock, Weather by CustomWeather, © 2016

Note: Actual official high and low records may vary slightly from our data, if they occured in-between our weather recording intervals... More about our weather records

Advertising

Płock Weather History for the Previous 24 Hours

Scroll right to see more
 ConditionsComfort  
Time TempWeatherWind HumidityBarometerVisibility
4:00 AM
Thu, May 5
43 °FQuite cool.2 mph83%30.28 "Hg13 mi
3:00 AM45 °FQuite cool.2 mph78%30.27 "Hg19 mi
2:00 AM46 °FCool.3 mph73%30.28 "Hg22 mi
1:00 AM48 °FCool.3 mph69%30.27 "Hg28 mi
12:00 AM50 °FCool.3 mph66%30.26 "Hg31 mi
11:00 PM
Wed, May 4
52 °FCool.3 mph64%30.24 "Hg28 mi
10:00 PM54 °FCool.3 mph62%30.23 "Hg25 mi
9:00 PM57 °FRefreshingly cool.3 mph59%30.21 "Hg28 mi
8:00 PM60 °FRefreshingly cool.5 mph56%30.18 "Hg28 mi
7:00 PM63 °FMild.6 mph55%30.16 "Hg25 mi
6:00 PM63 °FMild.6 mph55%30.14 "Hg19 mi
5:00 PM65 °FMild.7 mph49%30.13 "Hg25 mi
4:00 PM64 °FMild.7 mph50%30.12 "Hg28 mi
3:00 PM67 °FMild.7 mph49%30.11 "Hg19 mi
2:00 PM65 °FLight rain. Cloudy.6 mph54%30.12 "Hg17 mi
1:00 PM66 °FMild.5 mph54%30.12 "Hg18 mi
12:00 PM64 °FMild.5 mph57%30.12 "Hg17 mi
11:00 AM62 °FMild.3 mph65%30.12 "Hg19 mi
10:00 AM61 °FCool.3 mph70%30.11 "Hg17 mi
9:00 AM56 °FCool.2 mph83%30.10 "Hg14 mi
8:00 AM54 °FCool.2 mph87%30.10 "Hg11 mi
7:00 AM51 °FFog.2 mph96%30.09 "Hg5 mi
6:00 AM48 °FFog.1 mph95%30.07 "Hg3 mi
5:00 AM48 °FFog.1 mph95%30.06 "Hg3 mi
Weather by CustomWeather, © 2016

See weather overviewHow to use our weather pages